Date,Time,Air Temperature,Dewpoint,Windchill,Heat Index,RH,3m Max Wind Speed,3m Mean Wind Speed,3m Wind Direction,Rain,Solar Radiation
,,F,F,F,F,%,MPH,MPH,deg,in,MJ/m^2
2024-04-22,04:20,27.2,24.3,27.2,27.2,89,0,0,0,0.0,-0.00071138
2024-04-22,04:25,27,24.4,27.0,27,90,0,0,0,0.0,-0.0007137299
2024-04-22,04:30,27.2,24.4,27.2,27.2,89.1,0,0,0,0.0,-0.00074916
2024-04-22,04:35,27,23.4,27.0,27,86.1,0,0,0,0.0,-0.00080868
2024-04-22,04:40,25.4,21.4,25.4,25.4,84.8,0,0,0,0.0,-0.0009781899
2024-04-22,04:45,24.9,21.2,24.9,24.9,85.6,0,0,0,0.0,-0.0009067099
2024-04-22,04:50,24.7,21.4,24.7,24.7,86.9,0,0,0,0.0,-0.00077784
2024-04-22,04:55,25.1,22.4,25.1,25.1,89.1,0,0,0,0.0,-0.00075294
2024-04-22,05:00,25.3,22,25.3,25.3,87,0,0,0,0.0,-0.00070753
2024-04-22,05:05,24.7,21.4,24.7,24.7,86.9,0,0,0,0.0,-0.0008230099
2024-04-22,05:10,24.7,21.7,24.7,24.7,88.3,0,0,0,0.0,-0.00070798
2024-04-22,05:15,25.2,23.5,25.2,25.2,93.2,0,0,0,0.0,-0.00069796
2024-04-22,05:20,25.4,22.1,25.4,25.4,87.1,0,0,0,0.0,-0.00071856
2024-04-22,05:25,25.1,22.2,25.1,25.1,88.4,0,0,0,0.0,-0.00068982
2024-04-22,05:30,24.9,21.7,24.9,24.9,87.5,0,0,0,0.0,-0.00069484
2024-04-22,05:35,24.9,23.4,24.9,24.9,93.7,0,0,0,0.0,-0.00066378
2024-04-22,05:40,25.1,22.3,25.1,25.1,88.7,0,0,0,0.0,-0.00068315
2024-04-22,05:45,25.4,23,25.4,25.4,90.3,0,0,0,0.0,-0.00073408
2024-04-22,05:50,25,22,25.0,25,88.2,0,0,0,0.0,-0.0007163699
2024-04-22,05:55,25.2,22.5,25.2,25.2,89.3,0,0,0,0.0,-0.0007431399
2024-04-22,06:00,24.6,21.3,24.6,24.6,86.8,0,0,0,0.0,-0.00082587
2024-04-22,06:05,24.1,21.9,24.1,24.1,91,0,0,0,0.0,-0.00073952
2024-04-22,06:10,24.6,21.6,24.6,24.6,87.9,0,0,0,0.0,-0.00039522
2024-04-22,06:15,24.3,21,24.3,24.3,87.1,0,0,0,0.0,-0.00006196999
2024-04-22,06:20,24.1,21.4,24.1,24.1,89.2,0,0,0,0.0,0.0005626199
2024-04-22,06:25,24.5,21.7,24.5,24.5,89,0,0,0,0.0,0.00134215
2024-04-22,06:30,24.3,20.8,24.3,24.3,86.4,0,0,0,0.0,0.0020477
2024-04-22,06:35,23.7,20.4,23.7,23.7,87.1,0,0,0,0.0,0.00269859
2024-04-22,06:40,24.2,21.1,24.2,24.2,87.7,0,0,0,0.0,0.00635243
2024-04-22,06:45,23.8,20.4,23.8,23.8,86.9,0,0,0,0.0,0.01227448
2024-04-22,06:50,24.6,21.3,24.6,24.6,86.9,0,0,0,0.0,0.01624656
2024-04-22,06:55,25.6,22.6,25.6,25.6,88.2,0,0,0,0.0,0.02929074
2024-04-22,07:00,26.7,23,26.7,26.7,85.9,0,0,0,0.0,0.03576179
2024-04-22,07:05,27.2,23.3,27.2,27.2,85.1,0,0,0,0.0,0.03999977
2024-04-22,07:10,28.6,24.5,28.6,28.6,84.4,0,0,0,0.0,0.04436113
2024-04-22,07:15,29.7,25.1,29.7,29.7,82.6,0,0,0,0.0,0.04899698
2024-04-22,07:20,31,25.3,31.0,31,79.2,0,0,0,0.0,0.0537223
2024-04-22,07:25,32.4,25.5,32.4,32.4,75.6,0,0,0,0.0,0.05677475
2024-04-22,07:30,32.4,25.1,32.4,32.4,74.1,0,0,0,0.0,0.05982843
2024-04-22,07:35,32.1,24.9,32.1,32.1,74.4,0,0,0,0.0,0.0638708
2024-04-22,07:40,32.3,25,32.3,32.3,74.1,0,0,0,0.0,0.0680165
2024-04-22,07:45,33.1,26.5,33.1,33.1,76.5,0,0,0,0.0,0.07265475
2024-04-22,07:50,34.1,27.1,34.1,34.1,75.5,0,0,0,0.0,0.07658286
2024-04-22,07:55,34.9,27.4,34.9,34.9,73.8,0,0,0,0.0,0.08119936
2024-04-22,08:00,36.9,27.8,36.9,36.9,69.3,0,0,0,0.0,0.08572736
2024-04-22,08:05,38.3,28.6,38.3,38.3,67.9,0,0,0,0.0,0.08989483
2024-04-22,08:10,39.3,29.3,39.3,39.3,67.2,0,0,0,0.0,0.09756717
2024-04-22,08:15,40.5,30.2,40.5,40.5,66.4,0,0,0,0.0,0.1032974
2024-04-22,08:20,40.8,29.8,40.8,40.8,64.8,0,0,0,0.0,0.10867
2024-04-22,08:25,41.7,30.8,41.7,41.7,65.2,1.5,0.1,117.5,0.0,0.1141681
2024-04-22,08:30,43.7,31.4,43.7,43.7,61.5,1.9,0.1,143,0.0,0.12005
2024-04-22,08:35,46.5,31.5,46.5,46.5,55.6,0,0,0,0.0,0.1257491
2024-04-22,08:40,49.7,32.6,49.7,49.7,51.7,0,0,0,0.0,0.1315277
2024-04-22,08:45,52.1,31.1,52.1,52.1,44.6,0,0,0,0.0,0.1368618
2024-04-22,08:50,56.4,13.1,56.4,56.4,17.8,8.8,1.8,303,0.0,0.1430583
2024-04-22,08:55,59.5,11.6,59.5,59.5,14.9,16,7.5,299.5,0.0,0.1489387
2024-04-22,09:00,60.2,11.4,60.2,60.2,14.4,17.1,8.7,300.3,0.0,0.1538802
2024-04-22,09:05,60.9,12.5,60.9,60.9,14.8,13.7,9.1,282.8,0.0,0.1590603
2024-04-22,09:10,61.5,10.8,61.5,61.5,13.4,14.6,7.9,278,0.0,0.1642246
2024-04-22,09:15,61.9,11.3,61.9,61.9,13.5,12.2,7.2,281.8,0.0,0.1692189
2024-04-22,09:20,62.2,12.6,62.2,62.2,14.1,11.9,5.3,291.2,0.0,0.174151
2024-04-22,09:25,62.3,10.9,62.3,62.3,13.1,12.4,8.4,282.4,0.0,0.179211
2024-04-22,09:30,62.5,12.3,62.5,62.5,13.8,13.1,8.9,275.4,0.0,0.1840542
2024-04-22,09:35,62.6,10.2,62.6,62.6,12.5,17.2,10.4,266.8,0.0,0.1890791
2024-04-22,09:40,62.3,10.5,62.3,62.3,12.8,15.1,10.9,284.4,0.0,0.1938739
2024-04-22,09:45,62.6,10.8,62.6,62.6,12.9,16.4,10.3,269.9,0.0,0.1988061
2024-04-22,09:50,63.2,11.8,63.2,63.2,13.2,15.8,7.1,283.5,0.0,0.2034812
2024-04-22,09:55,63.6,10.4,63.6,63.6,12.2,11.3,8.2,280.6,0.0,0.2074353
2024-04-22,10:00,63.1,11,63.1,63.1,12.8,16.7,9.8,296.6,0.0,0.2120114
2024-04-22,10:05,63.5,11.5,63.5,63.5,12.9,16,10.6,274.3,0.0,0.2168003
2024-04-22,10:10,63.6,12.4,63.6,63.6,13.3,17.2,10.8,275,0.0,0.2209828
2024-04-22,10:15,63.6,14.2,63.6,63.6,14.4,18.7,10.4,263.4,0.0,0.224965
2024-04-22,10:20,64.2,14.1,64.2,64.2,14.1,15.1,9,280.2,0.0,0.2292405
2024-04-22,10:25,63.6,12.7,63.6,63.6,13.5,16.5,11.3,278.8,0.0,0.2323118
2024-04-22,10:30,63.8,11.7,63.8,63.8,12.9,18.1,12.9,275.2,0.0,0.2366173
2024-04-22,10:35,63.6,12.9,63.6,63.6,13.6,19.4,12.3,277.3,0.0,0.2394913
2024-04-22,10:40,63.9,13.7,63.9,63.9,14.0,19.4,10.6,288,0.0,0.2426954
2024-04-22,10:45,63.9,13.3,63.9,63.9,13.7,16.7,11.5,303.7,0.0,0.2462065
2024-04-22,10:50,64.4,13.5,64.4,64.4,13.6,16.4,9.4,286,0.0,0.2498054
2024-04-22,10:55,63.6,13.2,63.6,63.6,13.8,25.1,15,307.7,0.0,0.25252
2024-04-22,11:00,63.7,13,63.7,63.7,13.6,18.9,12.4,296.8,0.0,0.255462
2024-04-22,11:05,64.8,14.5,64.8,64.8,14.0,17.4,9.6,290.8,0.0,0.2589279
2024-04-22,11:10,64.5,17.9,64.5,64.5,16.5,19.6,12.8,298.2,0.0,0.2613393
2024-04-22,11:15,64.7,15.5,64.7,64.7,14.8,20.1,11.9,279.5,0.0,0.2643758
2024-04-22,11:20,64.7,12.1,64.7,64.7,12.7,19,11.2,296.5,0.0,0.2672848
2024-04-22,11:25,65.4,13.1,65.4,65.4,12.9,15.1,10.7,303.2,0.0,0.2701024
2024-04-22,11:30,64.6,11.6,64.6,64.6,12.4,17.4,12.4,302.3,0.0,0.2719448
2024-04-22,11:35,64.6,12.6,64.6,64.6,13.0,19.8,13.3,299,0.0,0.2742601
2024-04-22,11:40,64.7,13.4,64.7,64.7,13.4,19.9,12.2,290.3,0.0,0.276941
2024-04-22,11:45,65.6,12.9,65.6,65.6,12.7,14.4,10,296.5,0.0,0.2788565
2024-04-22,11:50,65.3,16.1,65.3,65.3,14.8,16.9,10.3,281.1,0.0,0.281008
2024-04-22,11:55,66.6,14.6,66.6,66.6,13.3,13.9,8,270,0.0,0.2835136
2024-04-22,12:00,65.9,14.8,65.9,65.9,13.7,13.9,10.6,271.7,0.0,0.2841652
2024-04-22,12:05,66.5,16.4,66.5,66.5,14.3,12.2,8.2,266.6,0.0,0.2860683
2024-04-22,12:10,66.5,15.5,66.5,66.5,13.8,14.9,9,289.5,0.0,0.2871371
2024-04-22,12:15,66.5,15,66.5,66.5,13.5,17.1,11.3,283,0.0,0.2887612
2024-04-22,12:20,66.1,12.7,66.1,66.1,12.4,14.7,10.1,276.2,0.0,0.2900899
2024-04-22,12:25,66.4,13.4,66.4,66.4,12.7,18.7,10.8,293.7,0.0,0.2912996
2024-04-22,12:30,65.4,14.8,65.4,65.4,13.9,18.1,11.8,295.6,0.0,0.2915047
2024-04-22,12:35,65.9,13.2,65.9,65.9,12.8,17.8,11,297.9,0.0,0.29186
2024-04-22,12:40,66.1,14.4,66.1,66.1,13.4,18,11.7,302,0.0,0.2926072
2024-04-22,12:45,66.6,15,66.6,66.6,13.5,16.9,10,261.9,0.0,0.2932366
2024-04-22,12:50,66.4,14.7,66.4,66.4,13.4,17.4,10.9,297,0.0,0.2928115
2024-04-22,12:55,67,15.3,67.0,67,13.5,15.8,9.4,276,0.0,0.2939116
2024-04-22,13:00,67.5,17.1,67.5,67.5,14.3,16,7,274.7,0.0,0.2941536
2024-04-22,13:05,67.7,16.7,67.7,67.7,13.9,14,7.5,270.4,0.0,0.2932414
2024-04-22,13:10,67.3,14.8,67.3,67.3,13.0,17.2,9.1,293.6,0.0,0.2929095
2024-04-22,13:15,67.9,13.8,67.9,67.9,12.2,16.5,10.1,285.8,0.0,0.2927842
2024-04-22,13:20,68.3,15,68.3,68.3,12.8,13.1,8.9,267.2,0.0,0.2928543
2024-04-22,13:25,69,13.9,69.0,69,11.8,11.7,4.7,235.6,0.0,0.2926109
2024-04-22,13:30,67.7,13.7,67.7,67.7,12.2,15.8,9.4,291.5,0.0,0.2908484
2024-04-22,13:35,68,13.8,68.0,68,12.2,12.4,8.6,280.3,0.0,0.2911145
2024-04-22,13:40,67.7,14.4,67.7,67.7,12.7,14.9,11,271.6,0.0,0.2899792
2024-04-22,13:45,68.1,15.6,68.1,68.1,13.1,15.3,8.6,280.8,0.0,0.2886026
2024-04-22,13:50,68.6,16.6,68.6,68.6,13.5,11.7,6.5,271.7,0.0,0.289051
2024-04-22,13:55,68.3,16.6,68.3,68.3,13.7,17.1,9.5,265,0.0,0.2868533
2024-04-22,14:00,68.3,14,68.3,68.3,12.1,14,7.4,254.8,0.0,0.2851221
2024-04-22,14:05,68.1,14,68.1,68.1,12.2,14.7,9.8,291.1,0.0,0.2833487
2024-04-22,14:10,67.8,13.3,67.8,67.8,12,11.9,8.5,302.9,0.0,0.2814946
2024-04-22,14:15,67.9,14.2,67.9,67.9,12.4,15.1,8.2,275.5,0.0,0.2800033
2024-04-22,14:20,68.5,15.2,68.5,68.5,12.8,14.4,7.5,282.4,0.0,0.2776985
2024-04-22,14:25,68.3,14.4,68.3,68.3,12.4,15.3,8.3,300.1,0.0,0.275158
2024-04-22,14:30,67.3,16.2,67.3,67.3,13.9,13.9,8.9,287.8,0.0,0.2737331
2024-04-22,14:35,68.6,15,68.6,68.6,12.6,15.3,8.3,288.2,0.0,0.2761383
2024-04-22,14:40,69,17,69.0,69,13.5,12.1,7.3,288,0.0,0.2695296
2024-04-22,14:45,69.1,14.7,69.1,69.1,12.2,10.3,5.9,274.7,0.0,0.2673613
2024-04-22,14:50,69,13.8,69.0,69,11.8,10.8,6.1,288.4,0.0,0.2663329
2024-04-22,14:55,69,13.5,69.0,69,11.6,14.9,9.9,299.4,0.0,0.2639126
2024-04-22,15:00,68.1,14.5,68.1,68.1,12.5,13.5,7.7,281.4,0.0,0.2592796
2024-04-22,15:05,69,14.9,69.0,69,12.4,12.4,6.3,265.8,0.0,0.2551939
2024-04-22,15:10,68.7,15.1,68.7,68.7,12.6,13.5,7.9,299.1,0.0,0.2534223
2024-04-22,15:15,69.4,16.3,69.4,69.4,13.0,11.9,6.1,284.2,0.0,0.2524379
2024-04-22,15:20,69.7,16.7,69.7,69.7,13.0,24.8,8.7,282.1,0.0,0.2479738
2024-04-22,15:25,69.5,17.2,69.5,69.5,13.4,12.4,6.4,269.2,0.0,0.2485455
2024-04-22,15:30,70.4,21,70.4,70.4,15.3,10.1,3.9,271.4,0.0,0.2427949
2024-04-22,15:35,69.5,14.9,69.5,69.5,12.2,20.1,6.5,288.5,0.0,0.2354822
2024-04-22,15:40,69.4,17.5,69.4,69.4,13.6,19.4,11.2,299.4,0.0,0.2346934
2024-04-22,15:45,70.1,18.5,70.1,70.1,13.9,10.8,5.7,284.1,0.0,0.2326499
2024-04-22,15:50,69.9,17.3,69.9,69.9,13.3,10.1,5.9,275.7,0.0,0.2290748
2024-04-22,15:55,69.7,15.9,69.7,69.7,12.6,11.5,5.2,258.7,0.0,0.2313578
2024-04-22,16:00,70.5,19.5,70.5,70.5,14.3,9.2,3.8,248.1,0.0,0.2272374
2024-04-22,16:05,70.1,17.9,70.1,70.1,13.5,12.2,6.8,264.3,0.0,0.2262989
2024-04-22,16:10,69.8,19.4,69.8,69.8,14.6,13.7,4.2,241.6,0.0,0.2178744
2024-04-22,16:15,69.8,16.8,69.8,69.8,13.0,10.8,5.8,286.8,0.0,0.2145879
2024-04-22,16:20,69.3,17.9,69.3,69.3,13.9,12.1,8,297.6,0.0,0.2054933
2024-04-22,16:25,69.6,18.2,69.6,69.6,13.9,13,7.9,301.9,0.0,0.1972667
2024-04-22,16:30,69.6,17.9,69.6,69.6,13.8,11.5,7.1,281.6,0.0,0.1932537
2024-04-22,16:35,69.1,19.5,69.1,69.1,15.0,14.4,8.4,296.4,0.0,0.1887451
2024-04-22,16:40,69,15.9,69.0,69,13.0,13,8.2,277.6,0.0,0.1815751
2024-04-22,16:45,69.5,17.9,69.5,69.5,13.9,10.6,4.7,275.3,0.0,0.1671001
2024-04-22,16:50,68,19.7,68.0,68,15.7,10.5,6.4,277.3,0.0,0.09115613
2024-04-22,16:55,67.4,17.9,67.4,67.4,14.9,11.7,6.3,291.3,0.0,0.07349905
2024-04-22,17:00,67.6,18.4,67.6,67.6,15.1,12.1,6.9,300.4,0.0,0.1046314
2024-04-22,17:05,68,20.5,68.0,68,16.3,7.2,3.6,288.2,0.0,0.1306595
2024-04-22,17:10,68.6,18,68.6,68.6,14.3,8.7,5.3,284.6,0.0,0.1550327
2024-04-22,17:15,68.9,20.1,68.9,68.9,15.5,11.7,4.9,273.2,0.0,0.1510685
2024-04-22,17:20,69.3,19.4,69.3,69.3,14.8,9.7,4.2,257.7,0.0,0.1357846
2024-04-22,17:25,68.2,19.8,68.2,68.2,15.7,13.5,5.2,275.6,0.0,0.1011292
2024-04-22,17:30,67.9,19.2,67.9,67.9,15.5,10.5,3.9,263.6,0.0,0.07893308
2024-04-22,17:35,68.6,19.6,68.6,68.6,15.3,4.4,0.7,276.8,0.0,0.1108449
2024-04-22,17:40,67.7,18.9,67.7,67.7,15.4,7.4,2.4,240.1,0.0,0.056737
2024-04-22,17:45,68.1,18.5,68.1,68.1,14.9,6.7,1.7,272.7,0.0,0.1096063
2024-04-22,17:50,68.8,18.4,68.8,68.8,14.5,5.5,0.8,241.6,0.0,0.07937086
2024-04-22,17:55,67.3,18.2,67.3,67.3,15.1,3.3,0.6,218.2,0.0,0.04241954
2024-04-22,18:00,68.1,17.7,68.1,68.1,14.4,13.3,2.1,279.5,0.0,0.08711206
2024-04-22,18:05,68.3,17.9,68.3,68.3,14.4,11.2,6.8,262.3,0.0,0.09742391
2024-04-22,18:10,68.1,17.3,68.1,68.1,14.2,12.8,7,270,0.0,0.09007178
2024-04-22,18:15,68.1,17.9,68.1,68.1,14.5,8.3,3.8,267.4,0.0,0.08632658
2024-04-22,18:20,68.3,18.3,68.3,68.3,14.7,5.5,1.9,263.8,0.0,0.08474439
2024-04-22,18:25,68.1,18.4,68.1,68.1,14.8,3.3,0.5,270.9,0.0,0.06085708
2024-04-22,18:30,67,17.3,67.0,67,14.7,4.9,1.1,274.2,0.0,0.02482341
2024-04-22,18:35,67.1,17.3,67.1,67.1,14.7,8.7,4.5,302.6,0.0,0.05176781
2024-04-22,18:40,66.9,17.3,66.9,66.9,14.7,13.7,6,286.4,0.0,0.0497765
2024-04-22,18:45,66.7,16.4,66.7,66.7,14.3,11.5,6.8,262.5,0.0,0.05315294
2024-04-22,18:50,66.6,18.7,66.6,66.6,15.8,11.7,3.5,272.9,0.0,0.04630364
2024-04-22,18:55,66.3,17,66.3,66.3,14.8,6.3,2.4,274.6,0.0,0.03513579
2024-04-22,19:00,66.2,16.6,66.2,66.2,14.7,1,0,255.5,0.0,0.02188024
2024-04-22,19:05,65,16.9,65.0,65,15.5,0,0,0,0.0,0.008823619
2024-04-22,19:10,63.7,18.9,63.7,63.7,17.6,0,0,0,0.0,0.00790975
2024-04-22,19:15,63.1,19.8,63.1,63.1,18.8,5.6,1.4,306.2,0.0,0.005531569
2024-04-22,19:20,61.6,20.4,61.6,61.6,20.3,2.2,0.1,215.5,0.0,0.00330092
2024-04-22,19:25,59.8,21.9,59.8,59.8,23.1,0,0,0,0.0,0.00253214
2024-04-22,19:30,59.5,19.7,59.5,59.5,21.3,0.8,0,246.4,0.0,0.00125104
2024-04-22,19:35,59.1,20,59.1,59.1,21.7,0,0,0,0.0,0.00047582
2024-04-22,19:40,58.9,18.8,58.9,58.9,20.8,0,0,0,0.0,-0.00022741
2024-04-22,19:45,58.7,18.9,58.7,58.7,21.1,0.8,0,184.1,0.0,-0.00053608
2024-04-22,19:50,58.7,19.5,58.7,58.7,21.6,0,0,0,0.0,-0.00102816
2024-04-22,19:55,57.8,19.8,57.8,57.8,22.6,0,0,0,0.0,-0.00153772
2024-04-22,20:00,56.6,19.3,56.6,56.6,23.1,0,0,0,0.0,-0.00178994
2024-04-22,20:05,57,18.6,57.0,57,22.1,0,0,0,0.0,-0.00143416
2024-04-22,20:10,56.1,19.7,56.1,56.1,24.0,0,0,0,0.0,-0.0016145
2024-04-22,20:15,55.5,19.2,55.5,55.5,24.0,0,0,0,0.0,-0.00152384
2024-04-22,20:20,55.8,18.7,55.8,55.8,23.2,0,0,0,0.0,-0.00134525
2024-04-22,20:25,54.9,20.5,54.9,54.9,25.9,0,0,0,0.0,-0.00163215
2024-04-22,20:30,55.5,19.6,55.5,55.5,24.3,0,0,0,0.0,-0.00114773
2024-04-22,20:35,55.6,19.8,55.6,55.6,24.5,0,0,0,0.0,-0.00129069
2024-04-22,20:40,54,20.6,54.0,54,26.8,0,0,0,0.0,-0.00163551
2024-04-22,20:45,53.7,20,53.7,53.7,26.5,0,0,0,0.0,-0.00153914
2024-04-22,20:50,53.6,20.3,53.6,53.6,26.9,0,0,0,0.0,-0.00133565
2024-04-22,20:55,53.7,19.3,53.7,53.7,25.7,0,0,0,0.0,-0.00131773
2024-04-22,21:00,52.9,20.8,52.9,52.9,28.2,0,0,0,0.0,-0.00155758
2024-04-22,21:05,52.3,19.8,52.3,52.3,27.6,0,0,0,0.0,-0.00147029
2024-04-22,21:10,50.1,21.4,50.1,50.1,32.1,0,0,0,0.0,-0.00172326
2024-04-22,21:15,51.4,18.8,51.4,51.4,27.3,0,0,0,0.0,-0.00113697
2024-04-22,21:20,52.2,19.7,52.2,52.2,27.6,0,0,0,0.0,-0.00111998
2024-04-22,21:25,49.8,20.6,49.8,49.8,31.3,0,0,0,0.0,-0.00158365
2024-04-22,21:30,50.8,19.8,50.8,50.8,29.1,0,0,0,0.0,-0.00129359
2024-04-22,21:35,50.5,19.6,50.5,50.5,29.3,0,0,0,0.0,-0.00129143
2024-04-22,21:40,49.5,21.4,49.5,49.5,32.8,0,0,0,0.0,-0.00166276
2024-04-22,21:45,48.1,20.4,48.1,48.1,33.1,0,0,0,0.0,-0.00167975
2024-04-22,21:50,46.3,20.5,46.3,46.3,35.5,0,0,0,0.0,-0.00165848
2024-04-22,21:55,45.7,20.6,45.7,45.7,36.6,0,0,0,0.0,-0.00126059
2024-04-22,22:00,45.6,20.1,45.6,45.6,35.9,0,0,0,0.0,-0.00115277
2024-04-22,22:05,45.7,20.2,45.7,45.7,36.0,2.4,0.3,241.3,0.0,-0.001197
2024-04-22,22:10,46.1,20.1,46.1,46.1,35.2,1.9,0.2,249.8,0.0,-0.00104253
2024-04-22,22:15,48,19.1,48.0,48,31.4,6,0.5,268.6,0.0,-0.0008517
2024-04-22,22:20,46.5,20.8,46.5,46.5,35.8,0,0,0,0.0,-0.00120797
2024-04-22,22:25,45.6,20.4,45.6,45.6,36.3,1.5,0.1,225.9,0.0,-0.00134597
2024-04-22,22:30,45.3,20.4,45.3,45.3,36.8,0,0,0,0.0,-0.00105762
2024-04-22,22:35,46.2,19.7,46.2,46.2,34.5,0.8,0,232.3,0.0,-0.00105186
2024-04-22,22:40,46.5,19.9,46.5,46.5,34.4,2.2,0.2,257.5,0.0,-0.00101956
2024-04-22,22:45,45.6,20.4,45.6,45.6,36.5,0,0,0,0.0,-0.00139258
2024-04-22,22:50,44.7,20.8,44.7,44.7,38.4,0,0,0,0.0,-0.00141312
2024-04-22,22:55,44.6,20.7,44.6,44.6,38.1,3.3,0.2,251.4,0.0,-0.00121349
2024-04-22,23:00,43,20.5,43.0,43,40.3,1,0.1,240.2,0.0,-0.00131461
2024-04-22,23:05,42.9,20.8,42.9,42.9,41.1,0,0,0,0.0,-0.00132157
2024-04-22,23:10,42.9,20.2,42.9,42.9,40.1,0.8,0,250.6,0.0,-0.00112887
2024-04-22,23:15,42.4,20.3,42.4,42.4,41.0,0,0,0,0.0,-0.00112575
2024-04-22,23:20,42.1,20.7,42.1,42.1,42.1,0,0,0,0.0,-0.0012149
2024-04-22,23:25,41.9,20.5,41.9,41.9,42.2,2.1,0.1,248.4,0.0,-0.0011695
2024-04-22,23:30,42,20.2,42.0,42,41.4,0.8,0,254.8,0.0,-0.00109274
2024-04-22,23:35,41.9,20.5,41.9,41.9,42.1,0,0,0,0.0,-0.00108797
2024-04-22,23:40,41.6,20.4,41.6,41.6,42.3,1,0.1,229.7,0.0,-0.00111018
2024-04-22,23:45,41.2,21,41.2,41.2,44.2,0,0,0,0.0,-0.00114556
2024-04-22,23:50,41.8,20.8,41.8,41.8,42.7,0.8,0,267.5,0.0,-0.00090456
2024-04-22,23:55,41.2,20.9,41.2,41.2,44,0,0,0,0.0,-0.00117932
2024-04-23,00:00,41.2,20.7,41.2,41.2,43.6,0,0,0,0.0,-0.00102529
2024-04-23,00:05,41.4,21,41.4,41.4,43.8,0,0,0,0.0,-0.00116853
2024-04-23,00:10,41.4,20.7,41.4,41.4,43.3,0,0,0,0.0,-0.0009346899
2024-04-23,00:15,41.5,20.6,41.5,41.5,42.8,0,0,0,0.0,-0.0009817899
2024-04-23,00:20,41.6,20.6,41.6,41.6,42.7,2.2,0.3,260.4,0.0,-0.00094592
2024-04-23,00:25,41.5,20.9,41.5,41.5,43.4,0,0,0,0.0,-0.00111567
2024-04-23,00:30,41.4,20.8,41.4,41.4,43.5,0,0,0,0.0,-0.00116541
2024-04-23,00:35,41.3,21,41.3,41.3,44.0,0,0,0,0.0,-0.00112598
2024-04-23,00:40,40.8,21,40.8,40.8,44.8,0,0,0,0.0,-0.00107935
2024-04-23,00:45,41.2,21.1,41.2,41.2,44.4,0,0,0,0.0,-0.00092968
2024-04-23,00:50,41.3,21.4,41.3,41.3,44.7,2.1,0.1,222.1,0.0,-0.00090838
2024-04-23,00:55,41.8,20.9,41.8,41.8,43.1,2.2,0.3,229,0.0,-0.00090982
2024-04-23,01:00,40.9,21.3,40.9,40.9,45.4,0,0,0,0.0,-0.00106498
2024-04-23,01:05,40.7,21.1,40.7,40.7,45.2,2.2,0.2,251.7,0.0,-0.0010088
2024-04-23,01:10,41.2,21,41.2,41.2,44.3,3.1,0.3,275.4,0.0,-0.0010112
2024-04-23,01:15,42.2,20.9,42.2,42.2,42.4,4.6,1.6,270.6,0.0,-0.00078642
2024-04-23,01:20,42.3,21.3,42.3,42.3,42.9,3.3,0.7,241.9,0.0,-0.00101191
2024-04-23,01:25,42,21.4,42.0,42,43.6,2.4,0.3,262.4,0.0,-0.00114007
2024-04-23,01:30,41.5,21.6,41.5,41.5,44.7,2.1,0.1,271.4,0.0,-0.00127612
2024-04-23,01:35,40.8,21.5,40.8,40.8,45.7,3.5,0.2,240,0.0,-0.00122571
2024-04-23,01:40,40.9,21.4,40.9,40.9,45.4,4,0.6,237,0.0,-0.00105997
2024-04-23,01:45,41.1,21.6,41.1,41.1,45.5,0.8,0,277.8,0.0,-0.00116614
2024-04-23,01:50,40.6,21.5,40.6,40.6,46.2,3.5,0.6,236,0.0,-0.00114702
2024-04-23,01:55,40.8,21.6,40.8,40.8,45.9,3,0.6,246.1,0.0,-0.00107553
2024-04-23,02:00,40.7,21.6,40.7,40.7,46.2,6.9,1.7,260,0.0,-0.00108102
2024-04-23,02:05,41.2,21.7,41.2,41.2,45.5,5.3,1.5,272.6,0.0,-0.00103008
2024-04-23,02:10,41,21.8,41.0,41,46.0,5.1,1.1,245.8,0.0,-0.0010215
2024-04-23,02:15,41,21.8,41.0,41,46.1,4.7,0.6,247,0.0,-0.00122735
2024-04-23,02:20,40.3,21.8,40.3,40.3,47.2,1.3,0.2,260.7,0.0,-0.00126393
2024-04-23,02:25,40.4,21.9,40.4,40.4,47.3,4.2,0.7,266,0.0,-0.0010351
2024-04-23,02:30,40.3,21.6,40.3,40.3,46.9,1.2,0.2,274.7,0.0,-0.0011028
2024-04-23,02:35,40.1,21.9,40.1,40.1,48.0,4.2,0.6,250,0.0,-0.00110327
2024-04-23,02:40,39.5,22.1,39.5,39.5,49.3,5.1,0.5,239.6,0.0,-0.00120223
2024-04-23,02:45,39.6,21.9,39.6,39.6,48.9,4.6,2.4,239.3,0.0,-0.00101003
2024-04-23,02:50,39.9,22.1,39.9,39.9,48.6,6.2,1.6,248.1,0.0,-0.00101071
2024-04-23,02:55,39.6,21.9,39.6,39.6,48.8,6.3,1.4,253.4,0.0,-0.00111665
2024-04-23,03:00,39.6,22.1,39.6,39.6,49.1,4.6,1.3,270.4,0.0,-0.00109152
2024-04-23,03:05,39.5,22.1,39.5,39.5,49.3,4.2,0.2,279.4,0.0,-0.00110731
2024-04-23,03:10,39.1,22,39.1,39.1,50.0,5.5,1.9,272.3,0.0,-0.00107172
2024-04-23,03:15,39.2,22,39.2,39.2,49.7,3.5,0.8,275.4,0.0,-0.00107264
2024-04-23,03:20,39.4,22.3,39.4,39.4,50.0,5.3,0.7,274.6,0.0,-0.00110518
2024-04-23,03:25,39.1,22.1,39.1,39.1,50.2,2.4,0.5,267.8,0.0,-0.00112573
2024-04-23,03:30,38.8,22.2,38.8,38.8,51.0,4.2,0.5,273,0.0,-0.0011262
2024-04-23,03:35,39.7,22,39.7,39.7,48.8,4.2,0.7,282.9,0.0,-0.0009229699
2024-04-23,03:40,39.8,22.1,39.8,39.8,48.9,4.4,0.4,272.1,0.0,-0.0009879899
2024-04-23,03:45,39.5,22.4,39.5,39.5,50.1,5.8,0.8,261.8,0.0,-0.00109464
2024-04-23,03:50,39.5,22.3,39.5,39.5,49.9,6.5,1.1,275.8,0.0,-0.00107693
2024-04-23,03:55,39.6,22.4,39.6,39.6,49.8,0,0,0,0.0,-0.00121062
2024-04-23,04:00,38.2,22.5,38.2,38.2,52.8,2.4,0.2,191,0.0,-0.0012577
2024-04-23,04:05,37,22.5,37.0,37,55.3,0,0,0,0.0,-0.00125171
2024-04-23,04:10,37.2,22.6,37.2,37.2,55.2,0,0,0,0.0,-0.00111594
2024-04-23,04:15,37.7,22.4,37.7,37.7,53.5,0,0,0,0.0,-0.0009648299
2024-04-23,04:20,,,,,,,,,,
